Lid_Strength_Index
1 0 -0 -1 -1 -1 -1 -1 -1 -1 -1 -1 -1 -1 -1 -1 -1 -1 -1 -1 -1 -2 -1 -1 -2 -2 -2 -2 -2 -2 -2 -2 -2 -2 -2 -1 -1 -1 -1 -1 -1 -1 -1
1 -0 0 -1 -1 -1 -1 -1 -1 -1 -1 -1 -1 -1 -1 -1 -1 -1 -1 -1 -1 -2 -2 -2 -2 -2 -2 -2 -2 -1 -1 -1 -1 -1 -1 -1 -1 -2 -2 -1 -2 -1 -2
1 -0 -0 -0 -1 -1 -1 -1 -1 -1 -1 -1 -1 -1 -1 -1 -1 -1 -1 -1 -2 -1 -2 -2 -2 -2 -2 -2 -1 -1 -1 -1 -1 -1 -1 0 -0 -2 -2 -1 -2 -2 -2
1 -0 -0 0 -1 -1 -1 -1 -1 -1 -1 -1 -1 -1 -1 -1 -2 -1 -1 -1 -2 -2 -2 -2 -2 -2 -2 -1 -1 -1 -2 -1 -1 -1 -0 -0 -0 -2 -2 -2 -2 -1 -1
4 1 -0 0 -1 -1 -1 -1 -1 -1 -1 -1 -1 -1 -1 -1 -1 -2 -1 -2 -2 -2 -2 -2 -2 -2 -1 -1 -1 -1 -1 -1 -1 -1 1 0 0 -1 -2 -2 -2 -2 -2
7 4 1 -0 -1 -1 -1 -1 -1 -1 -1 -1 -1 -1 -1 -1 -1 -1 -1 -2 -2 -2 -2 -2 -2 -1 -1 -1 -1 -1 -1 -2 -1 0 0 -1 0 -2 -2 -2 -2 -2 -2
8 5 4 3 1 -0 -1 -1 -1 -1 -1 -1 -1 -1 -1 -1 -1 -1 -1 -1 -2 -2 -2 -2 -1 -1 -1 -1 -1 -1 -1 -1 1 1 0 0 0 -2 -2 -1 -2 -2 -2
6 7 5 4 3 2 1 -0 -1 -1 -1 -1 -1 -1 -1 -1 -1 -1 -1 -1 -1 -2 -2 -2 -1 -1 -1 -2 -2 -1 -1 0 1 1 0 0 -2 -2 -2 -2 -1 -2 -2
5 5 6 5 4 3 3 2 2 -0 -1 -1 -1 -1 -1 -1 -1 -1 -1 -1 -1 -2 -1 -1 -1 -1 -1 -1 -1 -1 -0 1 2 0 -0 -0 -2 -1 -2 -2 -1 -1 -2
6 5 5 4 5 5 3 3 3 3 0 -0 0 0 1 1 0 0 0 -0 -1 -1 -1 -1 -1 -1 -1 -1 -1 -1 1 1 1 -0 -0 -1 -2 -2 -2 -2 -2 -1 -1
9 5 5 5 4 4 2 3 3 3 2 1 1 2 1 -0 -0 1 1 0 -1 -1 -1 -1 -1 -1 -1 -0 -0 0 1 1 1 0 -0 -1 -2 -2 -2 -2 -1 -1 -1
10 8 5 5 5 4 1 4 3 2 3 0 -0 -0 -0 -0 -0 -0 1 1 0 0 -1 -1 -1 -0 1 1 1 1 1 1 1 1 0 -1 -2 -2 -2 -2 -1 -1 -1
9 9 8 5 5 5 3 4 4 3 2 1 -0 -0 -0 -0 1 1 1 0 0 2 0 -0 -0 -0 0 1 1 1 1 2 2 1 0 -1 -2 -2 -2 -2 -2 -1 -1
9 9 8 6 4 5 3 3 4 3 2 3 -0 0 0 1 1 1 1 1 1 1 2 1 1 0 1 1 1 1 1 1 1 0 1 1 -1 -2 -2 -2 -2 -1 -1
9 9 8 7 4 4 5 3 4 4 3 3 3 -0 0 1 2 1 2 2 1 1 1 1 1 0 1 1 1 1 1 1 1 1 1 2 -0 -2 -2 -2 -2 -2 -2
9 8 8 6 5 5 4 4 3 3 3 3 3 0 0 1 1 2 2 2 2 1 1 0 0 1 1 1 1 1 1 1 1 1 0 1 1 -1 -2 -2 -2 -2 -2
8 8 8 7 5 5 4 4 4 3 2 2 1 1 -0 0 1 1 2 2 2 1 1 1 1 1 1 2 2 1 2 2 2 1 1 0 0 1 -1 -2 -2 -2 -2
9 8 7 6 6 5 5 5 4 3 2 3 2 0 0 -0 0 1 2 2 2 2 1 1 1 1 1 2 3 2 2 1 2 2 1 1 0 0 0 -1 -2 -2 -2
9 8 8 7 6 5 5 5 5 3 2 1 0 -0 0 -0 0 1 2 2 1 2 2 2 2 2 2 2 2 2 2 2 2 1 2 1 1 1 1 0 -0 0 -0
9 7 7 7 6 6 5 5 5 5 3 1 0 0 0 -0 1 1 2 2 2 2 2 2 2 2 2 3 2 3 3 3 3 3 3 2 2 2 2 2 2 3 2
9 8 7 7 6 6 6 6 5 5 2 1 0 0 0 0 1 1 2 2 2 2 2 2 3 3 4 3 3 4 4 2 4 4 3 4 6 8 9 9 9 9 9
10 9 8 6 6 5 5 4 3 2 2 1 1 0 0 0 0 1 2 2 2 2 2 2 3 4 4 3 4 4 5 5 4 6 6 8 9 8 9 9 9 9 10
10 10 8 7 5 5 4 3 2 1 2 2 1 2 1 1 1 1 2 2 2 2 2 2 3 3 5 4 4 5 8 8 7 9 10 10 11 11 11 11 11 11 11
7 10 6 3 3 2 2 2 2 3 3 2 2 2 2 1 1 1 1 1 1 2 2 2 3 3 3 4 4 5 7 7 8 11 10 12 12 12 13 13 13 13 13
9 8 5 5 5 4 3 2 3 3 2 2 6 8 10 9 8 4 1 1 3 6 8 7 8 9 8 9 9 9 8 9 9 8 11 13 14 13 13 13 13 14 14
10 9 8 7 7 6 5 4 4 5 6 7 9 11 12 12 11 10 10 10 10 10 11 12 12 12 13 13 14 15 15 14 13 11 11 12 14 15 14 14 15 15 15